Location: Ann Arbor
(42.2710°N, 83.7260°W)
Time: 10:46:34
(UTC-04:00)

Tiangong 2 - Visible Passes

Search period start: 16 July 2018 00:00
Search period end: 26 July 2018 00:00
Orbit: 386 x 394 km, 42.8° (Epoch: 16 July)

Date Brightness Start Highest point End Pass type
(mag) Time Alt. Az. Time Alt. Az. Time Alt. Az.
16 Jul 1.1 22:13:42 10° W 22:16:53 82° N 22:20:04 10° E visible
16 Jul 2.5 23:50:37 10° W 23:52:30 32° W 23:52:30 32° W visible
17 Jul 1.0 22:52:56 10° W 22:56:07 86° N 22:57:16 36° E visible
18 Jul 1.2 21:55:13 10° W 21:58:24 79° N 22:01:36 10° E visible
18 Jul 2.2 23:32:08 10° W 23:34:18 36° WSW 23:34:18 36° WSW visible
19 Jul 1.0 22:34:25 10° W 22:37:36 75° SSW 22:39:00 30° ESE visible
20 Jul 1.1 21:36:43 10° W 21:39:54 88° N 21:43:05 10° E visible
20 Jul 2.3 23:13:43 10° W 23:16:01 30° SW 23:16:01 30° SW visible
21 Jul 1.4 22:15:54 10° W 22:19:00 50° SSW 22:20:44 22° SE visible
22 Jul 2.9 22:55:30 10° W 22:57:48 20° SSW 22:57:48 20° SSW visible
23 Jul 2.3 21:57:28 10° W 22:00:20 31° SSW 22:02:34 14° SSE visible
24 Jul 3.6 22:38:07 10° SW 22:39:03 11° SW 22:39:42 11° SSW visible
25 Jul 3.2 21:39:16 10° WSW 21:41:33 18° SSW 21:43:50 10° SSE visible
